DW2363 Weather Reports


time (UTC)temp
F
wind
direction
speed
knots
gust
knots
rain 1hr
in
rain 24hr
in
rain mn
in
humidity
%
barometer
mb
20260510151308 71 351 3.5 5.2 0.00 0.00 0.00 57 1013.1
20260510150807 71 344 4.3 7.0 0.00 0.00 0.00 54 1013.2
20260510150307 70 349 5.2 7.0 0.00 0.00 0.00 54 1013.2
20260510145807 70 355 5.2 7.0 0.00 0.00 0.00 53 1013.1
20260510145311 70 341 5.2 7.0 0.00 0.00 0.00 51 1013.0
20260510145306 70 338 5.2 7.0 0.00 0.00 0.00 55 1013.0
20260510144305 70 339 4.3 5.2 0.00 0.00 0.00 55 1013.0
20260510143804 70 339 4.3 5.2 0.00 0.00 0.00 59 1013.0
20260510143304 70 340 4.3 7.0 0.00 0.00 0.00 59 1013.0
20260510142804 70 333 3.5 7.0 0.00 0.00 0.00 58 1012.9
20260510142308 69 346 2.6 4.3 0.00 0.00 0.00 63 1012.9
20260510142306 69 336 2.6 5.2 0.00 0.00 0.00 60 1012.8
20260510141302 69 336 3.5 5.2 0.00 0.00 0.00 62 1012.9
20260510140802 68 336 3.5 5.2 0.00 0.00 0.00 64 1012.8
20260510140301 68 333 4.3 7.0 0.00 0.00 0.00 63 1012.8
20260510135800 67 327 4.3 7.0 0.00 0.00 0.00 65 1012.8
20260510135300 67 331 4.3 7.0 0.00 0.00 0.00 65 1012.7
20260510134800 67 334 4.3 7.0 0.00 0.00 0.00 65 1012.6
20260510134300 67 331 4.3 7.0 0.00 0.00 0.00 64 1012.6
20260510133800 67 330 4.3 5.2 0.00 0.00 0.00 66 1012.6
20260510133304 66 338 5.2 7.0 0.00 0.00 0.00 68 1012.6
20260510133300 66 343 4.3 7.0 0.00 0.00 0.00 66 1012.6
20260510132300 65 332 6.1 7.0 0.00 0.00 0.00 70 1012.5
20260510131800 65 338 6.1 7.0 0.00 0.00 0.00 70 1012.5
20260510131258 65 342 6.1 7.8 0.00 0.00 0.00 69 1012.5
20260510130758 65 339 6.1 7.8 0.00 0.00 0.00 70 1012.6
20260510130258 65 355 5.2 7.8 0.00 0.00 0.00 68 1012.6
20260510125758 66 350 4.3 7.0 0.00 0.00 0.00 66 1012.5
20260510125306 68 355 4.3 5.2 0.00 0.00 0.00 61 1012.4
20260510125258 67 344 4.3 5.2 0.00 0.00 0.00 65 1012.4
20260510124906 68 5 4.3 6.1 0.00 0.00 0.00 60 1012.5
20260510124259 68 5 4.3 5.2 0.00 0.00 0.00 60 1012.4
20260510123258 68 5 4.3 6.1 0.00 0.00 0.00 59 1012.5
20260510122758 68 18 4.3 6.1 0.00 0.00 0.00 59 1012.5
20260510122258 68 18 5.2 6.1 0.00 0.00 0.00 58 1012.5
20260510121758 68 18 5.2 6.1 0.00 0.00 0.00 58 1012.5
20260510121258 68 18 4.3 6.1 0.00 0.00 0.00 59 1012.5
20260510120758 68 18 4.3 6.1 0.00 0.00 0.00 59 1012.5
20260510120258 67 18 4.3 6.1 0.00 0.00 0.00 59 1012.6
20260510115758 67 18 4.3 6.1 0.00 0.00 0.00 61 1012.5
20260510115258 66 25 4.3 6.1 0.00 0.00 0.00 62 1012.4
20260510114758 64 21 5.2 7.0 0.00 0.00 0.00 68 1012.5
20260510114258 64 11 5.2 7.0 0.00 0.00 0.00 71 1012.4
20260510113757 64 5 6.1 7.0 0.00 0.00 0.00 71 1012.5
20260510113258 64 5 6.1 7.0 0.00 0.00 0.00 70 1012.4
20260510112758 65 11 5.2 7.0 0.00 0.00 0.00 70 1012.4
20260510112258 65 5 6.1 7.0 0.00 0.00 0.00 69 1012.3
20260510111758 65 20 7.0 7.0 0.00 0.00 0.00 70 1012.3
20260510111256 64 20 6.1 7.0 0.00 0.00 0.00 71 1012.3
20260510110756 63 26 6.1 7.8 0.00 0.00 0.00 73 1012.3
20260510110256 63 26 7.0 7.8 0.00 0.00 0.00 69 1012.3
20260510105756 64 28 5.2 7.8 0.00 0.00 0.00 68 1012.2
20260510105257 65 42 4.3 6.1 0.00 0.00 0.00 70 1012.3
20260510104755 65 31 4.3 6.1 0.00 0.00 0.00 69 1012.3
20260510104256 65 12 3.5 6.1 0.00 0.00 0.00 71 1012.4
20260510103756 66 12 2.6 4.3 0.00 0.00 0.00 67 1012.3
20260510103300 67 14 3.5 6.1 0.00 0.00 0.00 69 1012.3
20260510103256 67 22 2.6 4.3 0.00 0.00 0.00 68 1012.3
20260510102256 67 14 3.5 6.1 0.00 0.00 0.00 67 1012.3
20260510101754 68 14 4.3 5.2 0.00 0.00 0.00 66 1012.3
20260510101251 68 14 4.3 5.2 0.00 0.00 0.00 63 1012.3
20260510100751 68 30 4.3 5.2 0.00 0.00 0.00 60 1012.3
20260510100252 68 36 3.5 5.2 0.00 0.00 0.00 61 1012.3
20260510095752 67 57 2.6 4.3 0.00 0.00 0.00 62 1012.4
20260510095251 67 82 1.7 2.6 0.00 0.00 0.00 65 1012.5
20260510094748 66 82 1.7 2.6 0.00 0.00 0.00 68 1012.5
20260510094254 66 82 0.9 3.5 0.00 0.00 0.00 69 1012.5
20260510094248 66 82 0.9 2.6 0.00 0.00 0.00 68 1012.5
20260510093248 66 82 1.7 3.5 0.00 0.00 0.00 69 1012.5
20260510092748 66 82 1.7 3.5 0.00 0.00 0.00 67 1012.5
20260510092247 67 82 2.6 3.5 0.00 0.00 0.00 64 1012.5
20260510091753 67 82 2.6 4.3 0.00 0.00 0.00 62 1012.5
20260510091747 67 82 2.6 4.3 0.00 0.00 0.00 65 1012.5
20260510090747 67 82 3.5 6.1 0.00 0.00 0.00 59 1012.6
20260510090253 67 72 4.3 6.1 0.00 0.00 0.00 59 1012.5
20260510090247 67 81 4.3 6.1 0.00 0.00 0.00 56 1012.5
20260510085855 67 68 4.3 6.1 0.00 0.00 0.00 62 1012.5
20260510085354 67 78 3.5 6.1 0.00 0.00 0.00 61 1012.5
20260510084253 67 89 2.6 5.2 0.00 0.00 0.00 57 1012.5
20260510084248 67 63 3.5 6.1 0.00 0.00 0.00 61 1012.5
20260510083248 67 85 3.5 5.2 0.00 0.00 0.00 60 1012.6
20260510082747 67 59 3.5 6.1 0.00 0.00 0.00 63 1012.6
20260510082247 67 61 3.5 6.1 0.00 0.00 0.00 57 1012.7
20260510081753 67 74 4.3 6.1 0.00 0.00 0.00 59 1012.8
20260510081747 67 84 4.3 6.1 0.00 0.00 0.00 59 1012.7
20260510080751 67 64 4.3 5.2 0.00 0.00 0.00 59 1012.8
20260510080745 67 80 4.3 6.1 0.00 0.00 0.00 61 1012.8
20260510075746 67 69 4.3 5.2 0.00 0.00 0.00 60 1012.9
20260510075243 66 55 4.3 5.2 0.00 0.00 0.00 60 1013.0
20260510074743 66 41 4.3 5.2 0.00 0.00 0.00 63 1013.0
20260510074241 66 61 3.5 6.1 0.00 0.00 0.00 62 1013.0
20260510073741 66 317 3.5 6.1 0.00 0.00 0.00 63 1013.0
20260510073241 66 10 4.3 6.1 0.00 0.00 0.00 66 1013.2
20260510072740 66 24 4.3 5.2 0.00 0.00 0.00 65 1013.2
20260510072241 66 31 4.3 5.2 0.00 0.00 0.00 67 1013.2
20260510071742 66 46 4.3 5.2 0.00 0.00 0.00 64 1013.1
20260510071242 66 51 4.3 6.1 0.00 0.00 0.00 66 1013.1
20260510070741 66 49 4.3 6.1 0.00 0.00 0.00 67 1013.2
20260510070240 66 49 4.3 6.1 0.00 0.00 0.00 71 1013.2
20260510065739 66 53 4.3 5.2 0.00 0.00 0.00 70 1013.2
20260510065239 66 50 5.2 7.0 0.00 0.00 0.00 70 1013.2
20260510064739 66 41 5.2 7.0 0.00 0.00 0.00 69 1013.4
20260510064239 66 43 5.2 6.1 0.00 0.00 0.00 73 1013.2
20260510063739 66 43 5.2 6.1 0.00 0.00 0.00 72 1013.2
20260510063243 66 43 5.2 6.1 0.00 0.00 0.00 72 1013.2
20260510063239 66 43 5.2 6.1 0.00 0.00 0.00 72 1013.2
20260510062237 66 43 5.2 6.1 0.00 0.00 0.00 72 1013.2
20260510061735 66 43 5.2 6.1 0.00 0.00 0.00 72 1013.2
20260510061235 66 43 5.2 6.1 0.00 0.00 0.00 73 1013.2
20260510060735 66 43 4.3 5.2 0.00 0.00 0.00 73 1013.2
20260510060232 66 43 3.5 5.2 0.00 0.00 0.00 74 1013.2
20260510055737 65 28 3.5 4.3 0.00 0.00 0.00 73 1013.4
20260510055732 65 28 3.5 4.3 0.00 0.00 0.00 72 1013.4
20260510054732 65 28 3.5 4.3 0.00 0.00 0.00 73 1013.4
20260510054235 66 28 3.5 4.3 0.00 0.00 0.00 73 1013.4
20260510054231 66 28 2.6 4.3 0.00 0.00 0.00 73 1013.4
20260510053231 66 28 2.6 4.3 0.00 0.00 0.00 73 1013.5
20260510052730 66 28 2.6 3.5 0.00 0.00 0.00 72 1013.5
20260510052231 66 28 2.6 3.5 0.00 0.00 0.00 72 1013.5
20260510051731 67 28 2.6 4.3 0.00 0.00 0.00 73 1013.5
20260510051229 67 28 2.6 4.3 0.00 0.00 0.00 73 1013.5
20260510050729 66 28 3.5 4.3 0.00 0.00 0.00 72 1013.5
20260510050228 66 28 3.5 4.3 0.00 0.00 0.00 72 1013.5
20260510045728 67 40 2.6 4.3 0.00 0.00 0.00 72 1013.5
20260510045230 67 40 2.6 4.3 0.00 0.00 0.00 73 1013.5
20260510044731 67 40 3.5 4.3 0.00 0.00 0.00 72 1013.4
20260510044727 67 40 3.5 5.2 0.00 0.00 0.00 72 1013.4
20260510044334 67 40 3.5 5.2 0.00 0.00 0.00 72 1013.4
20260510043834 67 47 2.6 4.3 0.00 0.00 0.00 71 1013.4
20260510043334 68 47 1.7 2.6 0.00 0.00 0.00 71 1013.2
20260510042227 68 70 2.6 4.3 0.00 0.00 0.00 70 1013.4
20260510041727 69 70 3.5 4.3 0.00 0.00 0.00 70 1013.2
20260510041226 69 70 2.6 4.3 0.00 0.00 0.00 70 1013.0
20260510040726 69 61 2.6 4.3 0.00 0.00 0.00 70 1013.0
20260510040226 69 76 1.7 4.3 0.00 0.00 0.00 69 1013.0
20260510035726 69 100 2.6 4.3 0.00 0.00 0.00 69 1013.0
20260510035226 69 69 2.6 4.3 0.00 0.00 0.00 69 1012.9
20260510034726 69 72 2.6 5.2 0.00 0.00 0.00 69 1012.9
20260510034228 69 84 2.6 5.2 0.00 0.00 0.00 68 1013.0
20260510033726 69 86 3.5 6.1 0.00 0.00 0.00 69 1012.9
20260510033226 69 61 4.3 7.0 0.00 0.00 0.00 69 1012.8
20260510032732 69 73 2.6 6.1 0.00 0.00 0.00 69 1012.7
20260510032726 69 73 4.3 7.0 0.00 0.00 0.00 69 1012.8
20260510031726 69 62 3.5 6.1 0.00 0.00 0.00 68 1012.6
20260510031226 70 69 4.3 6.1 0.00 0.00 0.00 68 1012.5
20260510030726 70 78 2.6 4.3 0.00 0.00 0.00 68 1012.5
20260510030226 70 78 2.6 4.3 0.00 0.00 0.00 68 1012.4
20260510025729 70 78 2.6 4.3 0.00 0.00 0.00 68 1012.3
20260510025725 70 75 1.7 4.3 0.00 0.00 0.00 67 1012.3
20260510024724 70 48 1.7 3.5 0.00 0.00 0.00 67 1012.2
20260510024225 71 69 1.7 3.5 0.00 0.00 0.00 66 1012.2
20260510023724 71 69 1.7 3.5 0.00 0.00 0.00 66 1012.3
20260510023222 72 69 1.7 3.5 0.00 0.00 0.00 65 1012.2
20260510022720 72 5 1.7 2.6 0.00 0.00 0.00 65 1012.3
20260510022220 72 241 0.9 2.6 0.00 0.00 0.00 64 1012.2
20260510021724 73 229 0.0 0.9 0.00 0.00 0.00 64 1012.2
20260510021720 73 229 0.0 0.9 0.00 0.00 0.00 64 1012.3
20260510020724 73 229 0.0 3.5 0.00 0.00 0.00 64 1012.2
20260510020720 73 229 0.0 0.9 0.00 0.00 0.00 64 1012.2
20260510015725 73 225 0.9 3.5 0.00 0.00 0.00 63 1012.2
20260510015720 73 229 0.9 3.5 0.00 0.00 0.00 62 1012.2
20260510014720 73 261 0.9 3.5 0.00 0.00 0.00 63 1012.2
20260510014224 72 228 1.7 2.6 0.00 0.00 0.00 63 1012.2
20260510014220 73 228 0.9 2.6 0.00 0.00 0.00 62 1012.2
20260510013217 72 242 1.7 3.5 0.00 0.00 0.00 63 1012.2
20260510012719 72 227 2.6 4.3 0.00 0.00 0.00 63 1012.1
20260510012218 72 200 2.6 4.3 0.00 0.00 0.00 63 1012.1
20260510011718 72 223 2.6 4.3 0.00 0.00 0.00 63 1012.1
20260510011217 72 198 2.6 6.1 0.00 0.00 0.00 64 1012.1
20260510010722 73 214 2.6 6.1 0.00 0.00 0.00 64 1012.1
20260510010718 72 200 2.6 6.1 0.00 0.00 0.00 64 1012.1
20260510005718 72 204 2.6 6.1 0.00 0.00 0.00 64 1012.1
20260510005222 72 225 3.5 7.0 0.00 0.00 0.00 65 1012.1
20260510005217 72 212 3.5 7.0 0.00 0.00 0.00 65 1012.1
20260510004216 72 219 3.5 6.1 0.00 0.00 0.00 66 1012.1
20260510003716 71 205 4.3 7.0 0.00 0.00 0.00 65 1012.1
20260510003216 71 221 4.3 7.0 0.00 0.00 0.00 65 1012.1
20260510002716 71 237 4.3 6.1 0.00 0.00 0.00 66 1012.2
20260510002216 71 246 4.3 7.0 0.00 0.00 0.00 65 1012.1
20260510001716 71 229 4.3 7.0 0.00 0.00 0.00 66 1012.2
20260510001216 71 234 4.3 7.0 0.00 0.00 0.00 65 1012.1
20260510000716 71 236 4.3 6.1 0.00 0.00 0.00 64 1012.1
20260510000216 71 219 4.3 6.1 0.00 0.00 0.00 65 1012.1
20260509235716 72 246 4.3 7.0 0.00 0.00 0.00 64 1012.2
20260509235220 72 232 4.3 7.0 0.00 0.00 0.00 64 1012.2
20260509235216 71 244 4.3 7.0 0.00 0.00 0.00 64 1012.3
20260509234215 72 225 4.3 6.1 0.00 0.00 0.00 64 1012.3
20260509233716 73 212 3.5 6.1 0.00 0.00 0.00 62 1012.3
20260509233215 73 231 3.5 6.1 0.00 0.00 0.00 64 1012.3
20260509232715 73 246 3.5 6.1 0.00 0.00 0.00 63 1012.3
20260509232216 73 225 3.5 6.1 0.00 0.00 0.00 63 1012.3
20260509231719 73 216 3.5 6.1 0.00 0.00 0.00 62 1012.4
20260509231715 74 206 2.6 5.2 0.00 0.00 0.00 62 1012.3
20260509231325 74 217 1.7 4.3 0.00 0.00 0.00 63 1012.3
20260509230217 74 225 1.7 4.3 0.00 0.00 0.00 63 1012.3
20260509230213 74 223 1.7 4.3 0.00 0.00 0.00 63 1012.3
20260509225211 74 228 1.7 6.1 0.00 0.00 0.00 64 1012.4
20260509224711 73 240 2.6 6.1 0.00 0.00 0.00 65 1012.4
20260509224211 73 237 2.6 5.2 0.00 0.00 0.00 65 1012.5
20260509223711 74 240 2.6 5.2 0.00 0.00 0.00 63 1012.5
20260509223208 74 225 2.6 5.2 0.00 0.00 0.00 64 1012.6
20260509222713 74 186 1.7 5.2 0.00 0.00 0.00 63 1012.6
20260509222707 74 189 2.6 5.2 0.00 0.00 0.00 63 1012.6
20260509221706 74 194 1.7 4.3 0.00 0.00 0.00 64 1012.6
20260509221208 74 221 1.7 5.2 0.00 0.00 0.00 63 1012.7
20260509221204 74 205 1.7 5.2 0.00 0.00 0.00 63 1012.8
20260509220203 74 189 1.7 4.3 0.00 0.00 0.00 62 1012.9
20260509215704 74 155 1.7 5.2 0.00 0.00 0.00 64 1012.9
20260509215204 73 189 1.7 5.2 0.00 0.00 0.00 61 1012.9
20260509214704 73 192 1.7 4.3 0.00 0.00 0.00 61 1012.9
20260509214203 74 213 1.7 4.3 0.00 0.00 0.00 62 1013.0
20260509213703 75 177 1.7 4.3 0.00 0.00 0.00 63 1013.1
20260509213204 75 183 1.7 5.2 0.00 0.00 0.00 62 1013.1
20260509212710 75 226 1.7 4.3 0.00 0.00 0.00 63 1013.2
20260509212704 75 161 1.7 5.2 0.00 0.00 0.00 63 1013.1
20260509211704 74 188 1.7 4.3 0.00 0.00 0.00 63 1013.2
20260509211203 74 155 1.7 4.3 0.00 0.00 0.00 64 1013.4
20260509210703 74 168 1.7 4.3 0.00 0.00 0.00 63 1013.4
20260509210203 75 131 1.7 5.2 0.00 0.00 0.00 62 1013.4
20260509205704 75 184 0.9 5.2 0.00 0.00 0.00 63 1013.4
20260509205204 75 136 0.9 5.2 0.00 0.00 0.00 62 1013.5
20260509204704 75 164 1.7 6.1 0.00 0.00 0.00 64 1013.4
20260509204211 74 128 0.9 7.8 0.00 0.00 0.00 65 1013.5
20260509204204 74 115 0.9 6.1 0.00 0.00 0.00 66 1013.5
20260509203203 74 172 1.7 7.8 0.00 0.00 0.00 65 1013.4
20260509202704 74 191 1.7 8.7 0.00 0.00 0.00 65 1013.5
20260509202203 74 188 1.7 8.7 0.00 0.00 0.00 65 1013.5
20260509201704 74 215 0.9 5.2 0.00 0.00 0.00 66 1013.5
20260509201204 74 167 0.9 3.5 0.00 0.00 0.00 66 1013.6
20260509200706 73 130 0.9 3.5 0.00 0.00 0.00 66 1013.5
20260509200702 74 160 0.9 3.5 0.00 0.00 0.00 64 1013.5
20260509195701 73 239 0.9 6.1 0.00 0.00 0.00 63 1013.6
20260509195202 74 126 1.7 6.1 0.00 0.00 0.00 66 1013.6
20260509194701 73 218 1.7 6.1 0.00 0.00 0.00 66 1013.6
20260509194201 73 157 1.7 6.1 0.00 0.00 0.00 68 1013.6
20260509193702 73 169 1.7 5.2 0.00 0.00 0.00 67 1013.7
20260509193206 73 75 1.7 6.1 0.00 0.00 0.00 68 1013.7
20260509193202 73 153 0.9 5.2 0.00 0.00 0.00 68 1013.7
20260509192159 73 136 2.6 8.7 0.00 0.00 0.00 67 1013.7
20260509191659 74 105 2.6 8.7 0.00 0.00 0.00 67 1013.7
20260509191203 73 20 2.6 7.0 0.00 0.00 0.00 68 1013.8
20260509191159 73 30 2.6 5.2 0.00 0.00 0.00 67 1013.8
20260509190159 73 29 2.6 7.0 0.00 0.00 0.00 68 1013.9
20260509185705 72 34 2.6 7.8 0.00 0.00 0.00 69 1013.8
20260509185659 73 34 3.5 7.8 0.00 0.00 0.00 68 1013.8
20260509185159 72 64 3.5 7.8 0.00 0.00 0.00 68 1013.8
20260509184200 72 355 2.6 7.8 0.00 0.00 0.00 68 1014.0
20260509183658 71 74 2.6 7.0 0.00 0.00 0.00 69 1013.9
20260509183157 70 78 2.6 6.1 0.00 0.00 0.00 70 1014.0
20260509182656 70 47 2.6 7.0 0.00 0.00 0.00 70 1013.9
20260509182201 70 348 2.6 7.0 0.00 0.00 0.00 70 1014.0
20260509182157 71 12 2.6 7.0 0.00 0.00 0.00 70 1013.9
20260509181201 71 47 1.7 5.2 0.00 0.00 0.00 69 1014.0
20260509181157 71 21 1.7 5.2 0.00 0.00 0.00 70 1014.0
20260509180202 71 52 1.7 6.1 0.00 0.00 0.00 71 1014.1
20260509180157 71 40 1.7 4.3 0.00 0.00 0.00 71 1014.0
20260509175158 70 80 1.7 6.1 0.00 0.00 0.00 72 1014.0
20260509174701 69 68 2.6 5.2 0.00 0.00 0.00 73 1014.0
20260509174657 70 103 1.7 4.3 0.00 0.00 0.00 73 1014.0
20260509173655 68 24 3.5 5.2 0.00 0.00 0.00 73 1014.1
20260509173200 69 46 3.5 6.1 0.00 0.00 0.00 71 1013.9
20260509173155 68 20 3.5 6.1 0.00 0.00 0.00 73 1014.0
20260509172155 69 59 2.6 5.2 0.00 0.00 0.00 70 1013.9
20260509171656 68 59 2.6 5.2 0.00 0.00 0.00 70 1013.8
20260509171153 67 52 3.5 5.2 0.00 0.00 0.00 71 1013.8
20260509170654 68 43 3.5 5.2 0.00 0.00 0.00 71 1013.7
20260509170153 69 41 2.6 5.2 0.00 0.00 0.00 65 1013.7
20260509165653 69 28 1.7 5.2 0.00 0.00 0.00 62 1013.6
20260509165153 69 57 1.7 4.3 0.00 0.00 0.00 65 1013.6
20260509164652 69 34 1.7 4.3 0.00 0.00 0.00 64 1013.6
20260509164153 69 40 1.7 4.3 0.00 0.00 0.00 67 1013.6
20260509163653 69 16 1.7 4.3 0.00 0.00 0.00 66 1013.6
20260509163152 69 51 1.7 4.3 0.00 0.00 0.00 68 1013.6
20260509162652 69 51 2.6 4.3 0.00 0.00 0.00 69 1013.6
20260509162153 69 28 2.6 5.2 0.00 0.00 0.00 63 1013.6
20260509161653 70 55 2.6 5.2 0.00 0.00 0.00 65 1013.6
20260509161153 69 78 2.6 5.2 0.00 0.00 0.00 67 1013.7
20260509160653 69 77 1.7 5.2 0.00 0.00 0.00 66 1013.6
20260509160152 69 38 2.6 5.2 0.00 0.00 0.00 62 1013.7
20260509155655 69 34 2.6 5.2 0.00 0.00 0.00 62 1013.6
20260509155651 69 47 2.6 5.2 0.00 0.00 0.00 62 1013.6
20260509154648 69 55 2.6 5.2 0.00 0.00 0.00 64 1013.7
20260509154149 68 96 2.6 5.2 0.00 0.00 0.00 64 1013.7
20260509153649 69 96 2.6 6.1 0.00 0.00 0.00 65 1013.7
20260509153151 68 95 2.6 6.1 0.00 0.00 0.00 63 1013.6
20260509153147 68 102 1.7 4.3 0.00 0.00 0.00 66 1013.7
20260509152152 67 49 2.6 4.3 0.00 0.00 0.00 65 1013.6
20260509152147 67 55 2.6 4.3 0.00 0.00 0.00 62 1013.7